Location: Utrecht
(52.0907°N, 5.1214°E)
Time: 18:54:14
(UTC+02:00)

DIWATA 2B (PO-101) - Pass Details

Date: 04 July 2022
Orbit: 583 x 599 km, 98.0° (Epoch: 07 August)

Event Time Altitude Azimuth Distance (km) Brightness Sun altitude
Exits shadow 02:28:06 - 132° (SE) 2,334 ? -14.4°
Reaches altitude 10° 02:29:09 10° 126° (SE) 1,941 ? -14.4°
Maximum altitude 02:32:52 31° 65° (ENE) 1,063 ? -14.3°
Drops below altitude 10° 02:36:36 10° 3° (N) 1,952 ? -14.1°
Sets 02:38:57 0° 353° (N) 2,859 ? -14.1°
